Weather in Venyukovo

Russia / Khabarovsk Krai     47°28′58″N   134°34′26″E
temp.,
°C
wind,
m/s
gust,
m/s
humid.,
%
clouds,
%
prec.,
mm/h
press.,
hPa
HPBL,
m
21 january, fri
fri2101:00−29ssw2210067 0.0 103310
04:00−29ssw2210061 0.0 103412
07:00−30ssw2210015 0.0 103512
10:00−26ssw1210028 0.0 103536
13:00−19wsw358934 0.0 1034315
16:00−17wsw368760 0.0 1032356
19:00−26sw22998 0.0 103310
22:00−27s221006 0.0 103310
22 january, sat
sat2201:00−27s2210014 0.0 103212
04:00−28s1110079 0.0 10329
07:00−30s1110066 0.0 10339
10:00−28se0010046 0.0 103317
13:00−20wnw229443 0.0 1033176
16:00−20nnw229641 0.0 103275
19:00−28sse1110036 0.0 10329
22:00−29s1110047 0.0 10319
23 january, sun
sun2301:00−30s1110042 0.0 10319
04:00−31ssw1110071 0.0 10309
07:00−31ssw1110057 0.0 10309
10:00−29sw1110061 0.0 103019
13:00−20wnw239338 0.0 1029217
16:00−19wnw34919 0.0 1028204
19:00−27sw111007 0.0 10289
22:00−27s22995 0.0 102811
24 january, mon
mon2401:00−27ssw2210061 0.0 102714
04:00−26ssw2210052 0.0 102716
07:00−27ssw1110047 0.0 102714
10:00−25sw1210031 0.0 102746
13:00−17sw368631 0.0 1027367
16:00−15wsw368742 0.0 1025301
19:00−23sw2210051 0.0 102610
22:00−23s22998 0.0 102515
25 january, tue
tue2501:00−23s229999 0.0 102515
04:00−24se01100100 0.0 10259
07:00−23s01100100 0.1 10249
10:00−21nw1199100 0.1 102537
13:00−17nw2294100 0.1 1024190
16:00−17nnw229698 0.1 1023123
19:00−25sw0010083 0.0 10249
22:00−27ssw1110071 0.1 10249